Powrót do katalogu

METEOR 2-17 DEB

AktywnyPO
NORAD 28989·DEBRIS·🇷🇺 Russia

Wystrzelony Jan 30, 1988 z Plesetsk Cosmodrome

Loading…

Następne Przeloty (najbliższe 24 godziny)

TLE

NieaktualneSource: Space-Track

Epoka: Sep 1, 2026, 00:43 UTC

1 28989U 88005D   26244.03027659  .00002379  00000-0  12160-2 0  9990
2 28989  82.5280 148.2948 0027959 187.9613 172.1125 14.15040622671554

Śledź METEOR 2-17 DEB w czasie rzeczywistym z AllMySat

Download on the App Store